[[{"header":{"parameterUnit":"m.s-1","parameterCategory":1,"la1":30.2991,"la2":30.254,"lo1":-89.0895,"lo2":-89.0444,"dy":0.0017,"dx":0.0017,"nx":28,"ny":28,"refTime":"2025-08-24T09:00:00:Z","depth":0,"parameterNumber":2,"parameterNumberName":"U-component_of_WINDS"},"data":[0,0,0,0,0,0,0,0,0,0,0,0,0,0,0,0,0,0,0,0,0,0,0,0,0,0,0,0,0,0,0,0,0,0,0,0,0,0,0,0,0,0,0,0,0,0,0,0,0,0,0,0,0,0,0,0,0,0,0.0862,0.0862,0,0.09,0.09,0.0901,0.0912,0.0911,0.0911,0.0911,0.0952,0.0953,0.0954,0,0,0,0,0,0,0,0,0,0,0,0,0,0.0798,0.0799,0.0862,0.0862,0.0862,0.09,0.09,0.0901,0.0912,0.0911,0.0911,0.0911,0.0951,0.0953,0.0954,0,0,0,0,0,0,0,0,0,0,0,0,0,0.083,0.08,0.0861,0.0872,0.0874,0.09,0.09,0.0901,0.0912,0.0911,0.0911,0.0911,0.0951,0.0953,0.0955,0.0973,0,0,0.096,0.0961,0,0,0,0,0,0,0,0,0.0828,0.0832,0.087,0.0872,0.0873,0.0901,0.0893,0.0925,0.0912,0.0897,0.0911,0.0911,0.0935,0.0938,0.0946,0.0975,0.0977,0.0961,0.0962,0.0963,0.0963,0,0,0,0,0,0,0,0.0826,0.0831,0.0877,0.0871,0.0873,0.0875,0.088,0.0899,0.0918,0.0899,0.0899,0.0904,0.0936,0.0944,0.0947,0.0977,0.0961,0.0962,0.0963,0.0964,0.1021,0.1022,0,0,0,0,0,0,0.0822,0.0829,0.0876,0.0878,0.0849,0.0877,0.0882,0.0892,0.0917,0.0921,0.0904,0.0904,0.0941,0.0945,0.0949,0.0971,0.0963,0.0964,0.0966,0.1021,0.1021,0.1022,0,0,0,0,0,0,0.082,0.0826,0.0874,0.0854,0.086,0.0878,0.089,0.0893,0.0902,0.0921,0.0925,0.0909,0.0941,0.0946,0.0966,0.0973,0.0965,0.0967,0.102,0.1021,0.1021,0.1016,0,0,0,0,0,0,0.0819,0.0825,0.0833,0.0854,0.0861,0.0891,0.0891,0.0894,0.0905,0.0905,0.0927,0.0931,0.0941,0.0963,0.0968,0.0975,0.0969,0.102,0.1021,0.1021,0.1016,0.1017,0.1017,0,0,0,0,0,0.0816,0.083,0.0833,0.0838,0.087,0.0891,0.0895,0.0907,0.0905,0.0912,0.0925,0.093,0.0971,0.0965,0.0971,0.0979,0.102,0.102,0.1021,0.1016,0.1016,0.1017,0,0,0,0,0,0,0.081,0.0833,0.0836,0.0858,0.0872,0.0893,0.0903,0.0907,0.0923,0.0923,0.0937,0.0942,0.0961,0.0972,0.0965,0.0997,0.0995,0.0997,0.0989,0.099,0.0991,0.0988,0.097,0,0,0,0,0,0.0811,0.0826,0.0845,0.0862,0.0869,0.0884,0.0894,0.0901,0.0918,0.0924,0.0938,0.0954,0.097,0.0981,0.0997,0.1017,0.1022,0.1025,0.1026,0.1026,0.1028,0.1038,0.104,0.1024,0.1024,0.1024,0,0,0.0814,0.0828,0.0837,0.0861,0.0873,0.0888,0.089,0.0906,0.0917,0.0927,0.0946,0.0957,0.0975,0.0995,0.1005,0.1005,0.1033,0.1027,0.1027,0.1029,0.1039,0.1041,0.1042,0.1025,0.1025,0.1025,0,0,0.0826,0.0838,0.0853,0.0865,0.0883,0.0893,0.0896,0.0916,0.0923,0.0943,0.095,0.0964,0.0992,0.1004,0.1014,0.1029,0.1034,0.1034,0.1037,0.1047,0.1048,0.1049,0.1054,0.1056,0.1035,0.1035,0.1035,0,0.0827,0.085,0.086,0.0876,0.0886,0.0894,0.0909,0.092,0.0943,0.095,0.0949,0.0983,0.0996,0.1019,0.1022,0.103,0.1034,0.1032,0.1047,0.1048,0.105,0.1054,0.1056,0.1035,0.1035,0.1035,0.1035,0,0.0849,0.0865,0.0875,0.0895,0.0907,0.0922,0.0935,0.0945,0.0951,0.0961,0.098,0.0996,0.1014,0.102,0.1027,0.1043,0.1043,0.1044,0.1043,0.1051,0.1055,0.1057,0.1035,0.1035,0.1035,0.1035,0,0,0.086,0.0885,0.0889,0.0898,0.0918,0.093,0.0945,0.0963,0.0971,0.0986,0.0999,0.1021,0.1022,0.1033,0.1041,0.105,0.106,0.105,0.1051,0.1051,0.1078,0.1077,0.1079,0.1063,0.1063,0.1063,0.1077,0,0.0875,0.0902,0.0911,0.0933,0.0948,0.0954,0.0967,0.0981,0.099,0.1003,0.1013,0.1029,0.1029,0.1036,0.1045,0.1056,0.1065,0.1056,0.1075,0.1075,0.107,0.1082,0.1081,0.1093,0.1078,0.1079,0.1079,0,0.0896,0.091,0.0933,0.095,0.0956,0.0968,0.0984,0.0997,0.1012,0.1018,0.1029,0.1036,0.1051,0.1049,0.107,0.1063,0.1071,0.1078,0.1078,0.1081,0.1078,0.1084,0.1097,0.1098,0.1082,0.1082,0.1082,0,0.0901,0.0926,0.0943,0.095,0.097,0.0978,0.0987,0.1002,0.1011,0.1025,0.1032,0.1047,0.1056,0.1068,0.1079,0.1076,0.1099,0.1097,0.1104,0.1104,0.1109,0.1109,0.1123,0.1114,0.1114,0.1114,0.1114,0,0.0916,0.093,0.0945,0.0956,0.0971,0.0981,0.0997,0.1006,0.1018,0.1031,0.1037,0.1049,0.1062,0.1075,0.1083,0.1099,0.1103,0.1108,0.111,0.1107,0.1107,0.1113,0.1113,0.1115,0.1114,0.1114,0.1114,0,0.0925,0.0935,0.0954,0.0971,0.0976,0.0987,0.1001,0.1011,0.102,0.1035,0.1039,0.1053,0.1068,0.108,0.11,0.1105,0.1122,0.1124,0.1117,0.1118,0.1124,0.1123,0.1143,0.1146,0.1135,0.1135,0.1135,0,0.0934,0.0945,0.0963,0.0971,0.098,0.0993,0.1003,0.1013,0.1022,0.1039,0.1047,0.1062,0.1076,0.1099,0.1111,0.1126,0.1129,0.1135,0.1131,0.1128,0.1129,0.1128,0.1129,0.1135,0.1135,0.1136,0.1136,0,0.0949,0.0954,0.0967,0.0982,0.0992,0.1005,0.1017,0.1023,0.1036,0.1046,0.1061,0.1071,0.109,0.1106,0.1121,0.113,0.1135,0.1136,0.1139,0.1136,0.1132,0.1134,0.1118,0.1136,0.1136,0.1136,0.1136,0.1136,0.0959,0.0968,0.0982,0.0996,0.1006,0.1017,0.1027,0.1036,0.1049,0.1066,0.1071,0.1086,0.11,0.1121,0.113,0.1142,0.1142,0.1146,0.1147,0.1147,0.1147,0.1129,0.1145,0.1145,0.1145,0.1145,0.1145,0,0.0974,0.0983,0.0996,0.1012,0.1023,0.1025,0.1039,0.1048,0.1061,0.1073,0.1085,0.1102,0.1116,0.1129,0.1143,0.115,0.1153,0.1154,0.1154,0.1156,0.1146,0.1143,0.1152,0.1152,0.1152,0.1152,0.1152,0.1152,0.0984,0.0999,0.1005,0.1026,0.1034,0.1049,0.1057,0.1066,0.1076,0.1094,0.1106,0.1113,0.1125,0.114,0.1153,0.1156,0.1162,0.1162,0.1166,0.1157,0.1156,0.1156,0.1152,0.1163,0.1163,0.1174,0.1174,0.1174]},{"header":{"parameterUnit":"m.s-1","parameterCategory":1,"la1":30.2991,"la2":30.254,"lo1":-89.0895,"lo2":-89.0444,"dy":0.0017,"dx":0.0017,"nx":28,"ny":28,"refTime":"2025-08-24T09:00:00:Z","depth":0,"parameterNumber":3,"parameterNumberName":"V-component_of_WINDS"},"data":[0,0,0,0,0,0,0,0,0,0,0,0,0,0,0,0,0,0,0,0,0,0,0,0,0,0,0,0,0,0,0,0,0,0,0,0,0,0,0,0,0,0,0,0,0,0,0,0,0,0,0,0,0,0,0,0,0,0,3.1273,3.1273,0,3.1332,3.1333,3.1333,3.1298,3.1297,3.1295,3.1293,3.1353,3.1356,3.1359,0,0,0,0,0,0,0,0,0,0,0,0,0,3.1124,3.1127,3.1273,3.1273,3.1274,3.1332,3.1333,3.1334,3.1299,3.1297,3.1295,3.1293,3.1352,3.1356,3.1359,0,0,0,0,0,0,0,0,0,0,0,0,0,3.1187,3.1128,3.1272,3.1264,3.1263,3.1332,3.1333,3.1334,3.1299,3.1297,3.1294,3.1292,3.1351,3.1355,3.136,3.144,0,0,3.1374,3.1376,0,0,0,0,0,0,0,0,3.1183,3.1192,3.1264,3.1264,3.1264,3.1305,3.1302,3.1369,3.13,3.1286,3.1293,3.129,3.1339,3.1345,3.1361,3.1443,3.1445,3.1375,3.1378,3.138,3.1381,0,0,0,0,0,0,0,3.1179,3.1189,3.1296,3.1265,3.1265,3.1255,3.1261,3.1315,3.1326,3.1287,3.1284,3.1292,3.1338,3.1357,3.1362,3.1446,3.1375,3.1379,3.1382,3.1384,3.1589,3.1592,0,0,0,0,0,0,3.1176,3.1186,3.1294,3.1298,3.1217,3.126,3.1267,3.1295,3.1325,3.1327,3.1294,3.129,3.135,3.1357,3.1364,3.1455,3.138,3.1384,3.1387,3.1587,3.159,3.1593,0,0,0,0,0,0,3.1173,3.1186,3.1292,3.1241,3.1254,3.1265,3.1297,3.1297,3.1315,3.1331,3.1332,3.1311,3.1348,3.1358,3.142,3.1456,3.1386,3.1391,3.1584,3.1588,3.1591,3.1639,0,0,0,0,0,0,3.1169,3.1185,3.1217,3.1242,3.1257,3.1348,3.1299,3.13,3.1324,3.1319,3.1347,3.1349,3.1347,3.1413,3.1425,3.1462,3.1394,3.158,3.1585,3.159,3.1634,3.1644,3.1653,0,0,0,0,0,3.1163,3.1229,3.1218,3.1232,3.1297,3.135,3.1358,3.1355,3.1327,3.1357,3.1366,3.1348,3.1452,3.142,3.1432,3.1471,3.1578,3.1584,3.159,3.163,3.1642,3.1653,0,0,0,0,0,0,3.1208,3.1232,3.1221,3.1297,3.1322,3.1344,3.1383,3.1369,3.1402,3.1396,3.1391,3.1397,3.1461,3.1473,3.1437,3.1547,3.151,3.1519,3.1536,3.1548,3.1557,3.1551,3.1398,0,0,0,0,0,3.1227,3.1269,3.1288,3.1353,3.1366,3.1372,3.1395,3.139,3.1416,3.1426,3.144,3.1464,3.1501,3.1526,3.1562,3.1637,3.164,3.167,3.1679,3.1687,3.1693,3.1728,3.174,3.1612,3.1612,3.1612,0,0,3.1266,3.1284,3.1311,3.1362,3.138,3.1421,3.1381,3.1428,3.1458,3.1433,3.1491,3.1502,3.1528,3.1596,3.1626,3.1608,3.1729,3.1694,3.17,3.1702,3.1735,3.1747,3.1758,3.1616,3.1615,3.1615,0,0,3.1356,3.1377,3.143,3.1449,3.1477,3.148,3.1493,3.1517,3.1523,3.1581,3.1562,3.1597,3.1663,3.1681,3.1699,3.1792,3.1774,3.1804,3.1851,3.1885,3.1895,3.1904,3.1932,3.1943,3.1811,3.1811,3.1812,0,3.1401,3.1463,3.146,3.1506,3.1527,3.1506,3.1558,3.1576,3.1615,3.1628,3.1608,3.1686,3.1704,3.1772,3.1794,3.1811,3.1822,3.1799,3.1894,3.1903,3.1911,3.1937,3.1949,3.1814,3.1814,3.1814,3.1813,0,3.1513,3.1557,3.1597,3.1632,3.1658,3.1707,3.1709,3.1735,3.1727,3.1732,3.1789,3.1809,3.1845,3.1862,3.1856,3.1928,3.1915,3.1895,3.1856,3.1926,3.1951,3.1961,3.1819,3.1818,3.1817,3.1816,0,0,3.1634,3.1664,3.1678,3.1692,3.172,3.1752,3.1799,3.1834,3.1854,3.1881,3.1917,3.1972,3.1952,3.1972,3.1968,3.1998,3.2064,3.1973,3.1974,3.1985,3.2138,3.215,3.2162,3.2054,3.2056,3.2058,3.2134,0,3.1722,3.1803,3.1799,3.1874,3.1911,3.189,3.193,3.195,3.1956,3.1987,3.1993,3.2029,3.2003,3.2014,3.2043,3.205,3.2094,3.2045,3.2084,3.2085,3.2073,3.2176,3.219,3.2262,3.2145,3.2146,3.2148,0,3.1836,3.1863,3.1942,3.1959,3.1974,3.2011,3.2039,3.2071,3.2092,3.2093,3.2114,3.2104,3.2148,3.2111,3.2169,3.2136,3.2152,3.2157,3.216,3.216,3.2118,3.2174,3.2285,3.2294,3.2164,3.2163,3.2161,0,3.1908,3.1966,3.2019,3.2032,3.2055,3.208,3.2091,3.2109,3.2129,3.2155,3.2167,3.2198,3.2214,3.2237,3.2234,3.2209,3.2292,3.2256,3.2291,3.2291,3.2307,3.2305,3.2417,3.2325,3.2325,3.2325,3.2324,0,3.2004,3.2051,3.2051,3.2083,3.2134,3.2129,3.2179,3.2187,3.2203,3.2234,3.222,3.2249,3.2246,3.2275,3.2274,3.2319,3.2328,3.2328,3.2326,3.2326,3.2326,3.2334,3.2327,3.2327,3.2327,3.2326,3.2326,0,3.2093,3.2095,3.215,3.2166,3.2171,3.2208,3.2221,3.225,3.2253,3.2293,3.2302,3.2307,3.234,3.234,3.2379,3.2377,3.2432,3.2427,3.2424,3.2421,3.2454,3.2449,3.2571,3.2585,3.2489,3.249,3.249,0,3.2152,3.2187,3.2206,3.2225,3.2237,3.227,3.2289,3.2285,3.2305,3.2329,3.2354,3.2386,3.241,3.2464,3.247,3.2498,3.2491,3.2531,3.2495,3.2492,3.2485,3.2481,3.2482,3.2537,3.2538,3.2539,3.254,0,3.2254,3.2252,3.228,3.2308,3.2331,3.2353,3.2373,3.239,3.2387,3.241,3.2443,3.2462,3.25,3.253,3.2556,3.2566,3.2551,3.2552,3.256,3.2559,3.2554,3.2552,3.2438,3.2548,3.2547,3.2547,3.2546,3.2546,3.2326,3.2354,3.237,3.2401,3.2415,3.2433,3.246,3.2465,3.2493,3.2522,3.2518,3.2554,3.257,3.2604,3.2616,3.2642,3.2627,3.2641,3.2644,3.2646,3.2647,3.2553,3.2648,3.2647,3.2647,3.2647,3.2647,0,3.2423,3.2431,3.246,3.2487,3.251,3.2495,3.2516,3.2535,3.2567,3.2583,3.2607,3.2642,3.2671,3.2678,3.2705,3.2724,3.2718,3.2731,3.2727,3.2728,3.2662,3.2649,3.2735,3.2735,3.2735,3.2735,3.2735,3.2735,3.2475,3.252,3.252,3.2571,3.258,3.2613,3.2625,3.2641,3.2653,3.2693,3.2716,3.2721,3.2733,3.276,3.2784,3.2785,3.2793,3.2808,3.2806,3.2743,3.2734,3.2725,3.2713,3.2811,3.2811,3.287,3.2871,3.2871]}]]